Weather History for Elkins, WV

Change the Weather History Date:

Friday, May 30, 2014

  Actual Average Record
Temperature  
Mean Temperature 64 °F 62 °F  
Max Temperature 76 °F 74 °F 89 °F (2006)
Min Temperature 52 °F 50 °F 32 °F (1949)
Degree Days  
Heating Degree Days 1 4  
Month to date heating degree days 179 231  
Since 1 July heating degree days 5986 5794  
Cooling Degree Days 0 1  
Month to date cooling degree days 34 17  
Year to date cooling degree days 36 20  
Growing Degree Days 16 (Base 50)    
Moisture  
Dew Point 58 °F    
Average Humidity 66    
Maximum Humidity 93    
Minimum Humidity 38    
Precipitation  
Precipitation 0.00 in 0.17 in 1.10 in (1940)
Month to date precipitation 3.95 4.96  
Year to date precipitation 15.34 19.05  
Snow  
Snow 0.00 in - - ()
Month to date snowfall 0.0  
Since 1 September snowfall 92.3  
Snow Depth 0.00 in    
Sea Level Pressure  
Sea Level Pressure 30.13 in    
Wind  
Wind Speed 3 mph (West)    
Max Wind Speed 12 mph    
Max Gust Speed 17 mph    
Visibility 4 miles    
Events Fog    
T = Trace of Precipitation, MM = Missing Value Source: NWS Daily Summary

Daily Weather History Graph

Daily Weather History Graph

Search for Another Location

Airport:

Trip Planner

Search our weather history database for the weather conditions in past years. The results will help you decide how hot, cold, wet, or windy it might be!

Date:

Astronomy

May. 30, 2014 Rise Set
Actual Time 5:56 AM EDT 8:37 PM EDT
Civil Twilight 5:25 AM EDT 9:08 PM EDT
Nautical Twilight 4:46 AM EDT 9:47 PM EDT
Astronomical Twilight 4:02 AM EDT 10:32 PM EDT
Moon 7:39 AM EDT (5/30) 10:13 PM EDT (5/30)
Length of Visible Light 15h 43m
Length of Day
14h 40m
Waxing Crescent, 4% of the Moon is Illuminated
May 30
Waxing Crescent
Jun 5
First Quarter
Jun 13
Full
Jun 19
Last Quarter
Jun 27
New

Hourly Weather History & Observations

Time (EDT) Temp. Dew Point Humidity Pressure Visibility Wind Dir Wind Speed Gust Speed Precip Events Conditions
12:05 AM 63.0 °F 61.0 °F 93% 30.13 in 0.5 mi Calm Calm - N/A Fog Fog
12:17 AM 63.0 °F 61.0 °F 93% 30.13 in 0.2 mi Calm Calm - N/A Fog Fog
12:31 AM 63.0 °F 61.0 °F 93% 30.11 in 0.5 mi South 4.6 mph - N/A Fog Fog
12:51 AM 63.0 °F 61.0 °F 93% 30.10 in 0.5 mi SSW 3.5 mph - N/A Fog Fog
1:23 AM 63.0 °F 61.0 °F 93% 30.12 in 0.2 mi SSE 3.5 mph - N/A Fog Fog
1:36 AM 63.0 °F 61.0 °F 93% 30.12 in 0.5 mi SSE 3.5 mph - N/A Fog Fog
1:51 AM 63.0 °F 61.0 °F 93% 30.10 in 0.8 mi Calm Calm - N/A   Mist
2:01 AM 63.0 °F 61.0 °F 93% 30.12 in 1.2 mi Calm Calm - N/A   Overcast
2:47 AM 62.6 °F 60.8 °F 94% 30.11 in 2.0 mi Calm Calm - N/A   Overcast
2:51 AM 62.1 °F 61.0 °F 96% 30.09 in 1.8 mi Calm Calm - N/A   Overcast
3:32 AM 62.1 °F 60.1 °F 93% 30.11 in 2.0 mi Calm Calm - N/A   Overcast
3:40 AM 62.1 °F 60.1 °F 93% 30.11 in 1.5 mi Calm Calm - N/A   Overcast
3:51 AM 62.1 °F 60.1 °F 93% 30.10 in 1.0 mi Calm Calm - N/A   Overcast
4:00 AM 62.1 °F 60.1 °F 93% 30.11 in 0.8 mi Calm Calm - N/A   Overcast
4:51 AM 62.1 °F 60.1 °F 93% 30.11 in 0.5 mi Calm Calm - N/A Fog Fog
5:20 AM 62.1 °F 60.1 °F 93% 30.12 in 1.0 mi Calm Calm - N/A   Mist
5:38 AM 62.1 °F 60.1 °F 93% 30.12 in 2.0 mi Calm Calm - N/A   Overcast
5:49 AM 62.6 °F 60.8 °F 94% 30.12 in 1.5 mi South 3.5 mph - N/A   Overcast
5:51 AM 62.1 °F 60.1 °F 93% 30.11 in 1.2 mi Calm Calm - N/A   Overcast
6:08 AM 62.1 °F 60.1 °F 93% 30.12 in 0.8 mi Calm Calm - N/A   Overcast
6:30 AM 62.1 °F 60.1 °F 93% 30.13 in 1.2 mi Calm Calm - N/A   Overcast
6:46 AM 62.6 °F 60.8 °F 94% 30.13 in 2.0 mi Calm Calm - N/A   Overcast
6:51 AM 62.1 °F 60.1 °F 93% 30.11 in 1.8 mi Calm Calm - N/A   Overcast
7:10 AM 62.1 °F 60.1 °F 93% 30.12 in 2.0 mi Calm Calm - N/A   Overcast
7:24 AM 62.1 °F 60.1 °F 93% 30.13 in 3.0 mi SW 3.5 mph - N/A   Overcast
7:38 AM 62.1 °F 60.1 °F 93% 30.13 in 5.0 mi Calm Calm - N/A   Overcast
7:51 AM 63.0 °F 60.1 °F 90% 30.12 in 4.0 mi Calm Calm - N/A   Overcast
8:51 AM 64.9 °F 60.1 °F 84% 30.14 in 5.0 mi Calm Calm - N/A   Haze
9:03 AM 66.0 °F 60.1 °F 81% 30.15 in 6.0 mi Calm Calm - N/A   Haze
9:36 AM 66.9 °F 61.0 °F 81% 30.16 in 7.0 mi SSW 3.5 mph - N/A   Overcast
9:51 AM 66.9 °F 60.1 °F 79% 30.14 in 7.0 mi Variable 3.5 mph - N/A   Mostly Cloudy
10:51 AM 69.1 °F 57.0 °F 65% 30.14 in 10.0 mi NW 5.8 mph - N/A   Scattered Clouds
11:51 AM 71.1 °F 57.9 °F 63% 30.15 in 10.0 mi WNW 8.1 mph - N/A   Mostly Cloudy
12:51 PM 73.0 °F 54.0 °F 51% 30.14 in 10.0 mi West 6.9 mph - N/A   Partly Cloudy
1:51 PM 73.9 °F 53.1 °F 48% 30.14 in 10.0 mi NNW 8.1 mph - N/A   Clear
2:51 PM 73.9 °F 52.0 °F 46% 30.13 in 10.0 mi NNW 11.5 mph - N/A   Clear
3:51 PM 75.0 °F 53.1 °F 46% 30.12 in 10.0 mi NW 8.1 mph - N/A   Clear
4:51 PM 75.0 °F 48.9 °F 40% 30.12 in 10.0 mi NW 6.9 mph - N/A   Clear
5:51 PM 73.9 °F 50.0 °F 43% 30.11 in 10.0 mi NW 5.8 mph - N/A   Clear
6:51 PM 73.4 °F 55.4 °F 53% 30.12 in 10.0 mi NNW 8.1 mph - N/A   Partly Cloudy
7:51 PM 69.1 °F 57.0 °F 65% 30.13 in 9.0 mi NW 5.8 mph - N/A   Clear
8:51 PM 63.0 °F 57.0 °F 81% 30.15 in 8.0 mi North 3.5 mph - N/A   Clear
9:51 PM 61.0 °F 55.9 °F 83% 30.17 in 7.0 mi Calm Calm - N/A   Partly Cloudy
10:51 PM 57.9 °F 55.0 °F 90% 30.19 in 7.0 mi Calm Calm - N/A   Clear
11:51 PM 55.9 °F 52.0 °F 87% 30.21 in 8.0 mi Calm Calm - N/A   Clear